Regional Weather Roundup
Issued by NWS Charleston, WV

Home | Current Version | Previous Version | Text Only | Print | Product List | Glossary Off
Versions: 1 2 3 4 5 6 7 8 9 10 11 12 13 14 15 16 17 18 19 20 21 22 23 24 25 26 27 28 29 30 31 32 33 34 35 36 37 38 39 40 41 42 43 44 45 46 47 48 49 50

000
ASUS41 KRLX 070510
RWRRLX
West Virginia Regional Weather Roundup
National Weather Service Charleston WV
1200 AM EST WED DEC 07 2016

Note: "fair" indicates few or no clouds below 12,000 feet with no
significant weather and/or obstructions to visibility.

WVZ003-070600-
Northern Panhandle of West Virginia

CITY           SKY/WX    TMP DP  RH WIND       PRES   REMARKS
WHEELING       CLOUDY    40  38  93 W21G30    29.85R
$$

WVZ009-070600-
Northwest West Virginia

CITY           SKY/WX    TMP DP  RH WIND       PRES   REMARKS
PARKERSBURG    CLOUDY    40  35  83 NW12      29.98R
$$

WVZ006-070600-
Western West Virginia

CITY           SKY/WX    TMP DP  RH WIND       PRES   REMARKS
HUNTINGTON     CLOUDY    43  35  73 NW7       29.97R
$$

WVZ015-070600-
West Central West Virginia

CITY           SKY/WX    TMP DP  RH WIND       PRES   REMARKS
CHARLESTON     CLOUDY    45  39  79 W8        29.94S
$$

WVZ022-031-070600-
North Central West Virginia

CITY           SKY/WX    TMP DP  RH WIND       PRES   REMARKS
CLARKSBURG     CLOUDY    44  42  93 W10       29.88R
MORGANTOWN     CLOUDY    45  41  86 SW6       29.84R
$$

WVZ025-035-042-045-070600-
Southern West Virginia

CITY           SKY/WX    TMP DP  RH WIND       PRES   REMARKS
BECKLEY        CLOUDY    42  38  85 NW12      29.89R
LOGAN          CLOUDY    43  39  87 CALM      29.94S
BLUEFIELD      CLOUDY    40  39  97 W7G18     29.91R
LEWISBURG      CLOUDY    37  36  98 SW7       29.88R
$$

WVZ047-070600-
Northern Mountains of West Virginia

CITY           SKY/WX    TMP DP  RH WIND       PRES   REMARKS
ELKINS         CLOUDY    44  39  82 W8        29.86R
$$

WVZ052-070600-
Eastern Panhandle of West Virginia

CITY           SKY/WX    TMP DP  RH WIND       PRES   REMARKS
MARTINSBURG    CLOUDY    37  37 100 CALM      29.86S FOG
PETERSBURG     CLOUDY    37  37  99 CALM      29.86F FOG
$$




USA.gov is the U.S. government's official web portal to all federal, state and local government web resources and services.